Location: Allen Lane School
(37.8198°N, 89.7382°W)
Time: 18:28:27
(UTC+00:00)

Lacrosse 5 rocket - Pass Details

Date: 08 December 2021
Orbit: 457 x 634 km, 57.0° (Epoch: 16 January)

Event Time Altitude Azimuth Distance (km) Brightness Sun altitude
Rises 23:42:33 0° 324° (NW) 2,624 5.0 -12.1°
Reaches altitude 10° 23:44:48 10° 333° (NNW) 1,765 4.0 -12.6°
Maximum altitude 23:48:34 39° 43° (NE) 827 1.8 -13.3°
Enters shadow 23:51:21 17° 105° (ESE) 1,443 3.0 -13.8°
